Find Starlink 36209

NORAD ID: 67022 Int'l Des: 2025-293 Owner: SPXS Country: US Constellation: starlink operational
LEOCIRCULAR

Live-Position

3D-Globus wird geladen...

Über Starlink 36209

Beschreibung wird geladen...

Nächste Überflüge

Passes for default location (London). Set your location on the main map for personalized predictions.

Höhenverlauf

Loading altitude history...

Zweizeiliger Elementsatz

1 67022U 25293V 26107.25003472 -.00026948 00000-0 -22585-2 0 9992
2 67022 70.0025 357.1291 0002415 273.6719 182.0189 14.98344837 5520
Epoch: 17. Apr. 2026 • Age: 12 hours

Aktueller Status

Höhe 575.6 km
Geschwindigkeit 7.57 km/s
Subsatellitenpunkt -8.01°S, 128.31°W
Startdatum 10. Dez. 2025
Alter 0.3 years
Typ internet

Technische Details

Klassifizierung Payload
Masse 575.00 kg
Trockenmasse 530.00 kg
Gesamtmasse 575.00 kg
Länge 0.30 m
Durchmesser 4.10 m
Spannweite 29.00 m
Form Box + pan
Hersteller SPXS
Bus-Typ Starlink V2MO
Phasenstatus In Orbit
Besitzer/Staat SPXS/US

Most Searched